This is the latest recevied weather packets stored in our database for station/object KC0OOO-WX. If no packets are shown the sender has not sent any weather packets the latest 10 day(s).
| Time | Temp. | Humidity | Pressure | Rain* | Wind** | Luminosity | Snow |
|---|---|---|---|---|---|---|---|
| 1777220124 | 5° C | 89% | 1012.2 hPa | 2.03 mm | - | - | - |
| 1777219524 | 5° C | 89% | 1012.5 hPa | 1.78 mm | - | - | - |
| 1777218924 | 5° C | 90% | 1012.5 hPa | 1.78 mm | - | - | - |
| 1777218294 | 5° C | 90% | 1012.5 hPa | 1.52 mm | - | - | - |
| 1777217694 | 5° C | 90% | 1012.5 hPa | 1.52 mm | - | - | - |
| 1777217094 | 5° C | 90% | 1012.9 hPa | 1.02 mm | - | - | - |
| 1777216494 | 5° C | 91% | 1012.9 hPa | 1.02 mm | - | - | - |
| 1777215894 | 4.44° C | 90% | 1012.9 hPa | 1.02 mm | - | - | - |
| 1777215264 | 4.44° C | 90% | 1012.9 hPa | 1.02 mm | - | - | - |
| 1777214664 | 4.44° C | 91% | 1013.2 hPa | 1.02 mm | - | - | - |
| 1777214064 | 4.44° C | 91% | 1013.2 hPa | 0.76 mm | - | - | - |
| 1777213464 | 4.44° C | 90% | 1012.9 hPa | 1.02 mm | - | - | - |
| 1777212834 | 4.44° C | 90% | 1012.9 hPa | 0.76 mm | - | - | - |
| 1777212234 | 3.89° C | 90% | 1012.9 hPa | 0.51 mm | - | - | - |
| 1777211634 | 3.89° C | 90% | 1012.9 hPa | 0.25 mm | - | - | - |
| 1777211034 | 3.89° C | 90% | 1012.5 hPa | 0.25 mm | - | - | - |
| 1777210434 | 3.89° C | 89% | 1012.5 hPa | 0.51 mm | - | - | - |
| 1777209833 | 3.89° C | 89% | 1012.5 hPa | 0.25 mm | - | - | - |
| 1777209204 | 3.89° C | 89% | 1012.5 hPa | 0.25 mm | - | - | - |
| 1777208603 | 3.89° C | 89% | 1012.9 hPa | 0.25 mm | - | - | - |
| 1777208003 | 3.89° C | 89% | 1012.9 hPa | 0.51 mm | - | - | - |
| 1777207403 | 3.89° C | 89% | 1012.9 hPa | 0.76 mm | - | - | - |
| 1777206803 | 3.89° C | 89% | 1012.9 hPa | 1.02 mm | - | - | - |
| 1777206203 | 4.44° C | 89% | 1012.9 hPa | 1.27 mm | - | - | - |
| 1777205603 | 4.44° C | 89% | 1012.9 hPa | 1.27 mm | - | - | - |
* Rain latest hour (hover to see other rain measurements)
** Current wind speed in m/s (hover to see current wind gust speed)